Kecskemet, Hungary

8:59 AM CET on February 08, 2016 (GMT +0100)
Kecskemet

Weather History for LHKE - December, 2013

Change the Weather History Date:

Sunday, December 15, 2013

  Actual Average Record
Temperature  
Mean Temperature 32 °F -  
Max Temperature 37 °F - - ()
Min Temperature 28 °F - - ()
Degree Days  
Heating Degree Days 32    
Moisture  
Dew Point 32 °F    
Average Humidity 92    
Maximum Humidity 100    
Minimum Humidity 87    
Precipitation  
Precipitation 0.00 in - - ()
Sea Level Pressure  
Sea Level Pressure 30.53 in    
Wind  
Wind Speed 4 mph ()    
Max Wind Speed 7 mph    
Max Gust Speed -    
Visibility 1.1 miles    
Events Fog    
T = Trace of Precipitation, MM = Missing Value Source: Averaged Metar Reports

Daily Weather History Graph

Daily Weather History Graph

Search for Another Location

Airport or City:

Trip Planner

Search our weather history database for the weather conditions in past years. The results will help you decide how hot, cold, wet, or windy it might be!

Date:

Astronomy

Dec. 15, 2013 Rise Set
Actual Time 7:19 AM CET 3:52 PM CET
Civil Twilight 6:44 AM CET 4:27 PM CET
Nautical Twilight 6:05 AM CET 5:06 PM CET
Astronomical Twilight 5:28 AM CET 5:43 PM CET
Moon 2:48 PM CET (12/15) 5:14 AM CET (12/15)
Length of Visible Light 9h 43m
Length of Day
8h 32m
Waxing Gibbous, 97% of the Moon is Illuminated
Dec 15
Waxing Gibbous
Dec 17
Full
Dec 25
Last Quarter
Jan 1
New
Jan 8
First Quarter

Hourly Weather History & Observations

Time (CET) Temp. Windchill Dew Point Humidity Pressure Visibility Wind Dir Wind Speed Gust Speed Precip Events Conditions
12:15 AM 32.0 °F - 30.2 °F 93% 30.48 in 0.7 mi WSW 2.2 mph - N/A   Overcast
12:45 AM 30.2 °F 25.5 °F 28.4 °F 93% 30.48 in 0.7 mi South 4.5 mph - N/A   Overcast
1:15 AM 28.4 °F 23.4 °F 28.4 °F 100% 30.48 in 0.6 mi SW 4.5 mph - N/A   Overcast
1:45 AM 30.2 °F 25.5 °F 28.4 °F 93% 30.51 in 0.6 mi WSW 4.5 mph - N/A   Overcast
2:15 AM 32.0 °F 27.6 °F 30.2 °F 93% 30.51 in 0.6 mi WSW 4.5 mph - N/A   Overcast
2:45 AM 32.0 °F 27.6 °F 30.2 °F 93% 30.51 in 1.2 mi WSW 4.5 mph - N/A   Overcast
3:15 AM 32.0 °F 27.6 °F 30.2 °F 93% 30.48 in 1.2 mi SW 4.5 mph - N/A   Overcast
3:45 AM 32.0 °F 27.6 °F 30.2 °F 93% 30.48 in 1.2 mi SW 4.5 mph - N/A   Overcast
4:15 AM 32.0 °F 27.6 °F 30.2 °F 93% 30.48 in 1.2 mi SW 4.5 mph - N/A   Overcast
4:45 AM 32.0 °F 27.6 °F 30.2 °F 93% 30.48 in 1.2 mi SW 4.5 mph - N/A   Overcast
5:15 AM 32.0 °F 27.6 °F 30.2 °F 93% 30.48 in 1.2 mi WSW 4.5 mph - N/A   Overcast
5:45 AM - - - N/A% - 1.9 mi West 6.7 mph - N/A   Overcast
6:15 AM 33.8 °F 27.9 °F 30.2 °F 87% 30.51 in 1.2 mi West 6.7 mph - N/A   Overcast
6:45 AM 33.8 °F 29.7 °F 32.0 °F 93% 30.51 in 1.2 mi WSW 4.5 mph - N/A   Overcast
7:08 AM 33.8 °F 27.9 °F 32.0 °F 93% 30.51 in 0.9 mi West 6.7 mph - N/A   Overcast
7:15 AM 33.8 °F 29.7 °F 32.0 °F 93% 30.51 in 0.9 mi West 4.5 mph - N/A   Overcast
7:45 AM 33.8 °F 27.9 °F 32.0 °F 93% 30.51 in 1.2 mi West 6.7 mph - N/A   Light Drizzle
8:15 AM 33.8 °F 27.9 °F 32.0 °F 93% 30.51 in 1.2 mi West 6.7 mph - N/A   Light Drizzle
8:45 AM - - - N/A% - 0.9 mi West 6.7 mph - N/A   Overcast
9:15 AM 33.8 °F 27.9 °F 32.0 °F 93% 30.54 in 1.2 mi West 6.7 mph - N/A   Overcast
9:31 AM 33.8 °F 27.9 °F 32.0 °F 93% 30.54 in 1.9 mi West 6.7 mph - N/A   Overcast
9:45 AM 33.8 °F 27.9 °F 32.0 °F 93% 30.54 in 1.9 mi West 6.7 mph - N/A   Overcast
10:15 AM 35.6 °F 31.8 °F 32.0 °F 87% 30.54 in 1.9 mi West 4.5 mph - N/A   Overcast
10:45 AM 35.6 °F 30.0 °F 32.0 °F 87% 30.54 in 1.9 mi West 6.7 mph - N/A   Overcast
11:15 AM 35.6 °F 30.0 °F 32.0 °F 87% 30.54 in 1.9 mi West 6.7 mph - N/A   Overcast
11:45 AM - - - N/A% - 1.9 mi West 6.7 mph - N/A   Overcast
12:15 PM 35.6 °F 30.0 °F 32.0 °F 87% 30.51 in 1.9 mi West 6.7 mph - N/A   Overcast
12:38 PM 35.6 °F 30.0 °F 33.8 °F 93% 30.51 in 1.9 mi West 6.7 mph - N/A   Light Drizzle
12:45 PM 35.6 °F 30.0 °F 33.8 °F 93% 30.51 in 1.9 mi West 6.7 mph - N/A   Light Drizzle
1:15 PM 37.4 °F 32.2 °F 33.8 °F 87% 30.51 in 1.9 mi West 6.7 mph - N/A   Light Drizzle
1:45 PM 37.4 °F 33.9 °F 33.8 °F 87% 30.51 in 1.9 mi West 4.5 mph - N/A   Light Drizzle
2:15 PM 37.4 °F 33.9 °F 33.8 °F 87% 30.51 in 1.9 mi West 4.5 mph - N/A   Light Drizzle
2:45 PM 37.4 °F 32.2 °F 33.8 °F 87% 30.51 in 1.9 mi NW 6.7 mph - N/A   Light Drizzle
3:00 PM - - - N/A% - 1.9 mi West 6.7 mph - N/A   Overcast
3:05 PM 35.6 °F 31.8 °F 33.8 °F 93% 30.54 in 0.9 mi NNW 4.5 mph - N/A   Light Drizzle
3:15 PM 35.6 °F 31.8 °F 33.8 °F 93% 30.54 in 0.9 mi NW 4.5 mph - N/A   Light Drizzle
3:30 PM - - - N/A% - 0.9 mi West 6.7 mph - N/A   Overcast
3:40 PM - - - N/A% - 0.9 mi West 6.7 mph - N/A   Overcast
3:45 PM 35.6 °F - 33.8 °F 93% 30.54 in 0.7 mi NW 2.2 mph - N/A   Light Drizzle
4:15 PM 35.6 °F - 33.8 °F 93% 30.54 in 0.7 mi Calm Calm - N/A   Light Drizzle
4:45 PM 35.6 °F - 33.8 °F 93% 30.54 in 0.7 mi Calm Calm - N/A   Light Drizzle
5:15 PM 35.6 °F - 33.8 °F 93% 30.54 in 0.7 mi West 2.2 mph - N/A   Light Drizzle
5:45 PM - - - N/A% - 0.9 mi Variable 4.5 mph - N/A   Overcast
6:15 PM 35.6 °F - 33.8 °F 93% 30.54 in 0.9 mi WNW 2.2 mph - N/A   Overcast
6:45 PM 35.6 °F 31.8 °F 33.8 °F 93% 30.57 in 1.2 mi NNW 4.5 mph - N/A   Overcast
7:15 PM 35.6 °F 31.8 °F 33.8 °F 93% 30.57 in 1.1 mi WNW 4.5 mph - N/A   Overcast
7:23 PM 35.6 °F 31.8 °F 33.8 °F 93% 30.57 in 0.6 mi WNW 4.5 mph - N/A   Drizzle
7:45 PM 35.6 °F 31.8 °F 33.8 °F 93% 30.57 in 0.6 mi North 4.5 mph - N/A   Light Drizzle
7:56 PM 35.6 °F - 33.8 °F 93% 30.57 in 0.5 mi Calm Calm - N/A Fog Fog
8:15 PM 35.6 °F - 33.8 °F 93% 30.57 in 0.4 mi North 2.2 mph - N/A Fog Fog
8:45 PM - - - N/A% - 0.9 mi Variable 4.5 mph - N/A   Overcast
9:15 PM 35.6 °F - 33.8 °F 93% 30.57 in 0.2 mi WNW 2.2 mph - N/A Fog Light Drizzle
9:34 PM 35.6 °F - 33.8 °F 93% 30.57 in 0.5 mi Calm Calm - N/A Fog Light Drizzle
9:45 PM 35.6 °F - 33.8 °F 93% 30.57 in 0.9 mi West 2.2 mph - N/A   Overcast
10:15 PM 35.6 °F - 33.8 °F 93% 30.57 in 0.9 mi Calm Calm - N/A   Overcast
10:45 PM 35.6 °F - 33.8 °F 93% 30.57 in 0.9 mi West 2.2 mph - N/A   Overcast
11:15 PM 35.6 °F - 33.8 °F 93% 30.57 in 1.2 mi Calm Calm - N/A   Overcast
11:45 PM - - - N/A% - 0.9 mi North - - N/A   Overcast